This is the latest recevied weather packets stored in our database for station/object W7SA-12. If no packets are shown the sender has not sent any weather packets the latest 10 day(s).
| Time | Temp. | Humidity | Pressure | Rain* | Wind** | Luminosity | Snow |
|---|---|---|---|---|---|---|---|
| 1777948675 | 13.89° C | 69% | 1015 hPa | 1.02 mm | - | - | - |
| 1777948375 | 13.89° C | 66% | 1015 hPa | 1.02 mm | - | - | - |
| 1777948075 | 14.44° C | 63% | 1015 hPa | 0.76 mm | - | - | - |
| 1777947775 | 15° C | 61% | 1015 hPa | 0.76 mm | - | - | - |
| 1777947475 | 15.56° C | 57% | 1015 hPa | 0.51 mm | - | - | - |
| 1777947175 | 16.11° C | 55% | 1015 hPa | 0.25 mm | - | - | - |
| 1777946875 | 16.67° C | 54% | 1015 hPa | 0.25 mm | - | - | - |
| 1777946575 | 16.67° C | 54% | 1014.2 hPa | 0.25 mm | - | - | - |
| 1777946275 | 16.67° C | 55% | 1014.1 hPa | 0.25 mm | - | - | - |
| 1777945975 | 16.67° C | 54% | 1014.2 hPa | 0.25 mm | - | - | - |
| 1777945675 | 17.22° C | 52% | 1015 hPa | 0.25 mm | - | - | - |
| 1777945375 | 17.78° C | 52% | 1015 hPa | 0 mm | - | - | - |
| 1777945075 | 17.78° C | 53% | 1014.2 hPa | 0 mm | - | - | - |
| 1777944775 | 17.78° C | 55% | 1014 hPa | 0 mm | - | - | - |
| 1777944475 | 17.78° C | 54% | 1014 hPa | 0 mm | - | - | - |
| 1777944175 | 17.78° C | 54% | 1014 hPa | 0 mm | - | - | - |
| 1777943875 | 17.78° C | 54% | 1014 hPa | 0 mm | - | - | - |
| 1777943575 | 17.78° C | 55% | 1014 hPa | 0 mm | - | - | - |
| 1777943275 | 17.78° C | 53% | 1014 hPa | 0 mm | - | - | - |
| 1777942975 | 17.78° C | 53% | 1014 hPa | 0 mm | - | - | - |
| 1777942675 | 17.78° C | 53% | 1014 hPa | 0 mm | - | - | - |
| 1777942375 | 17.78° C | 51% | 1014 hPa | 0 mm | - | - | - |
| 1777942076 | 17.78° C | 50% | 1014 hPa | 0 mm | - | - | - |
| 1777941775 | 17.78° C | 48% | 1014 hPa | 0 mm | - | - | - |
| 1777941475 | 17.78° C | 46% | 1014 hPa | 0 mm | - | - | - |
* Rain latest hour (hover to see other rain measurements)
** Current wind speed in m/s (hover to see current wind gust speed)